星链-30081 (STARLINK-30081 )

导读 | 星芒AI

STARLINK-30081 是 SpaceX 星链计划中的一颗低轨卫星,属于第 30 批发射的星链卫星群。该卫星旨在为全球用户提供高速互联网服务,支持偏远地区的网络接入。它运行在约 550 公里的轨道高度,采用先进的通信技术,具备高带宽和低延迟特性。星链项目通过部署大量卫星,构建全球覆盖的宽带网络系统,推动互联网普及。STARLINK-30081 的成功部署有助于增强星链网络的稳定性和服务能力。

基本信息
目录编号:
57515
目录名称:
STARLINK-30081
国际标识:
2023-113X
轨道中心:
EARTH
卫星名称:
星链-30081
卫星全名:
星链-30081 (STARLINK-30081 )
卫星状态:
在轨 (已飞行815 天)
发射日期:
2023-08-07 UTC
国别 :
美国 (US)
星等 :
--
轨道信息
数据来源 国际轨道数据 AOE轨道数据
星历时间 2025-10-30T05:20:22+0800
18小时前
查看轨道信息
2025-10-30T14:00:00+0800
9小时前
查看轨道信息
半长轴 6937.226km 6937.232km
偏心率 0.0001159 0.0002642
轨道倾角 43.003° 43.005°
近地点辐角 274.440° 224.829°
升交点赤经 8.146° 6.187°
平近点角 85.631° 289.341°
近地点 558.286km 557.264km
远地点 559.896km 560.93km
周期 95.838分钟 95.838分钟
每日圈数 15.02533 15.025312
详细信息
固有亮度:
5
最大亮度:
0.3
卫星平台:
Starlink v2.0 mini
覆盖范围:
全球
运营商:
太空探索技术公司
运营商所在国:
美国
制造商(研发单位):
太空探索技术公司
制造商所在国:
美国
使用方式:
暂无
卫星简介
星链(Starlink)计划是由太空探索技术公司(SpaceX)提出的一个巨型低轨卫星互联网星座项目,计划在2019年至2024年间在太空搭建由约1.2万颗卫星组成的“星链”网络,其中1584颗将部署在地球上空550千米处的近地轨道,并从2020年开始工作。该卫星仍在工作。
2D轨道图
3D轨道图
轨道高度分析图
轨道倾角分析图
轨道综合分析图
查看轨道综合分析图